Weather History for Tehachapi, CA

Change the Weather History Date:

Thursday, January 23, 2014

  Actual Average Record
Temperature  
Mean Temperature 42 °F -  
Max Temperature 57 °F 52 °F 57 °F (2013)
Min Temperature 26 °F 29 °F 26 °F (2014)
Degree Days  
Heating Degree Days 24    
Moisture  
Dew Point 7 °F    
Average Humidity 22    
Maximum Humidity 47    
Minimum Humidity 13    
Precipitation  
Precipitation 0.00 in - - ()
Sea Level Pressure  
Sea Level Pressure 30.06 in    
Wind  
Wind Speed 11 mph (ESE)    
Max Wind Speed 28 mph    
Max Gust Speed 38 mph    
Visibility 10 miles    
Events      
Averages and records for this station are not official NWS values.
T = Trace of Precipitation, MM = Missing Value Source: NWS Daily Summary

Daily Weather History Graph

Daily Weather History Graph

Search for Another Location

Airport:

Trip Planner

Search our weather history database for the weather conditions in past years. The results will help you decide how hot, cold, wet, or windy it might be!

Date:

Astronomy

Jan. 23, 2014 Rise Set
Actual Time 6:58 AM PST 5:13 PM PST
Civil Twilight 6:31 AM PST 5:40 PM PST
Nautical Twilight 6:00 AM PST 6:11 PM PST
Astronomical Twilight 5:30 AM PST 6:41 PM PST
Moon No Moon Rise 10:54 AM PST (1/23)
Length of Visible Light 11h 09m
Length of Day
10h 14m
Waning Gibbous, 54% of the Moon is Illuminated
Jan 23
Waning Gibbous
Jan 23
Last Quarter
Jan 30
New
Feb 6
First Quarter
Feb 14
Full

Hourly Weather History & Observations

Time (PST) Temp. Windchill Dew Point Humidity Pressure Visibility Wind Dir Wind Speed Gust Speed Precip Events Conditions
12:15 AM 30.2 °F - 10.4 °F 44% 30.00 in 9.0 mi Calm Calm - N/A   Clear
12:35 AM 30.2 °F 26.7 °F 8.6 °F 40% 30.00 in 9.0 mi East 3.5 mph - N/A   Clear
12:55 AM 28.4 °F - 8.6 °F 43% 30.00 in 10.0 mi Calm Calm - N/A   Clear
1:15 AM 28.4 °F - 8.6 °F 43% 29.99 in 10.0 mi Calm Calm - N/A   Scattered Clouds
1:35 AM 28.4 °F 19.7 °F 6.8 °F 40% 29.99 in 10.0 mi SE 9.2 mph - N/A   Overcast
1:55 AM 30.2 °F 26.7 °F 6.8 °F 37% 29.99 in 10.0 mi ENE 3.5 mph - N/A   Overcast
2:15 AM 28.4 °F 24.6 °F 8.6 °F 43% 29.99 in 8.0 mi East 3.5 mph - N/A   Overcast
2:35 AM 30.2 °F - 6.8 °F 37% 29.99 in 10.0 mi Calm Calm - N/A   Mostly Cloudy
2:55 AM 26.6 °F - 8.6 °F 47% 29.98 in 10.0 mi Calm Calm - N/A   Mostly Cloudy
3:15 AM 28.4 °F 24.6 °F 6.8 °F 40% 29.98 in 10.0 mi East 3.5 mph - N/A   Scattered Clouds
3:35 AM 28.4 °F - 5.0 °F 37% 29.98 in 10.0 mi Calm Calm - N/A   Scattered Clouds
3:55 AM 28.4 °F 21.2 °F 5.0 °F 37% 29.98 in 10.0 mi ESE 6.9 mph - N/A   Partly Cloudy
4:15 AM 28.4 °F 24.6 °F 6.8 °F 40% 29.98 in 10.0 mi NE 3.5 mph - N/A   Clear
4:35 AM 28.4 °F 23.3 °F 5.0 °F 37% 29.98 in 10.0 mi SE 4.6 mph - N/A   Clear
4:55 AM 32.0 °F 24.8 °F 3.2 °F 30% 29.99 in 10.0 mi SE 8.1 mph - N/A   Clear
5:15 AM 33.8 °F 29.6 °F 1.4 °F 25% 30.00 in 10.0 mi ESE 4.6 mph - N/A   Clear
5:35 AM 33.8 °F 26.4 °F 3.2 °F 28% 30.00 in 10.0 mi ESE 9.2 mph - N/A   Clear
5:55 AM 33.8 °F 25.3 °F 3.2 °F 28% 30.01 in 10.0 mi ESE 11.5 mph - N/A   Clear
6:15 AM 42.8 °F 37.0 °F 5.0 °F 21% 30.02 in 10.0 mi ESE 10.4 mph - N/A   Clear
6:35 AM 46.4 °F 40.4 °F 3.2 °F 17% 30.03 in 10.0 mi ESE 13.8 mph - N/A   Clear
6:55 AM 46.4 °F 41.5 °F 3.2 °F 17% 30.03 in 10.0 mi ESE 10.4 mph 17.3 mph N/A   Clear
7:15 AM 46.4 °F 40.1 °F 3.2 °F 17% 30.04 in 10.0 mi ESE 15.0 mph 20.7 mph N/A   Clear
7:35 AM 48.2 °F - 3.2 °F 16% 30.05 in 9.0 mi East 12.7 mph - N/A   Clear
7:55 AM 48.2 °F - 5.0 °F 17% 30.06 in 10.0 mi ESE 15.0 mph - N/A   Clear
8:15 AM 48.2 °F - 5.0 °F 17% 30.06 in 10.0 mi SE 12.7 mph 19.6 mph N/A   Clear
8:35 AM 50.0 °F - 5.0 °F 16% 30.07 in 7.0 mi SE 16.1 mph 23.0 mph N/A   Clear
8:55 AM 51.8 °F - 5.0 °F 15% 30.07 in 8.0 mi SE 19.6 mph 24.2 mph N/A   Clear
9:15 AM 53.6 °F - 5.0 °F 14% 30.07 in 8.0 mi SE 21.9 mph 25.3 mph N/A   Clear
9:35 AM 53.6 °F - 5.0 °F 14% 30.08 in 9.0 mi ESE 19.6 mph 25.3 mph N/A   Clear
9:55 AM 53.6 °F - 5.0 °F 14% 30.08 in 7.0 mi ESE 23.0 mph 31.1 mph N/A   Clear
10:15 AM 53.6 °F - 5.0 °F 14% 30.09 in 9.0 mi SE 21.9 mph 33.4 mph N/A   Clear
10:35 AM 55.4 °F - 5.0 °F 13% 30.08 in 8.0 mi ESE 21.9 mph 33.4 mph N/A   Clear
10:55 AM 55.4 °F - 5.0 °F 13% 30.08 in 9.0 mi ESE 24.2 mph 34.5 mph N/A   Clear
11:15 AM 55.4 °F - 6.8 °F 14% 30.08 in 9.0 mi SE 24.2 mph 32.2 mph N/A   Clear
11:35 AM 55.4 °F - 6.8 °F 14% 30.07 in 9.0 mi ESE 23.0 mph 32.2 mph N/A   Clear
11:55 AM 55.4 °F - 6.8 °F 14% 30.07 in 7.0 mi ESE 24.2 mph 33.4 mph N/A   Clear
12:15 PM - - - N/A% 30.06 in 9.0 mi ESE 27.6 mph 38.0 mph N/A   Clear
12:35 PM - - - N/A% - - North - - N/A   Unknown
12:55 PM 55.4 °F - 6.8 °F 14% 30.05 in 9.0 mi SE 26.5 mph 34.5 mph N/A   Unknown
1:15 PM 57.2 °F - 6.8 °F 13% 30.05 in 9.0 mi ESE 21.9 mph 35.7 mph N/A   Mostly Cloudy
1:35 PM 57.2 °F - 6.8 °F 13% 30.05 in 10.0 mi ESE 25.3 mph 33.4 mph N/A   Partly Cloudy
1:55 PM 57.2 °F - 6.8 °F 13% 30.05 in 9.0 mi ESE 23.0 mph 33.4 mph N/A   Clear
2:15 PM 57.2 °F - 8.6 °F 14% 30.05 in 10.0 mi ESE 25.3 mph 33.4 mph N/A   Partly Cloudy
2:35 PM 57.2 °F - 6.8 °F 13% 30.05 in 9.0 mi ESE 21.9 mph 34.5 mph N/A   Mostly Cloudy
2:55 PM 57.2 °F - 8.6 °F 14% 30.05 in 10.0 mi ESE 23.0 mph 34.5 mph N/A   Overcast
3:15 PM 55.4 °F - 8.6 °F 15% 30.05 in 10.0 mi East 24.2 mph 32.2 mph N/A   Overcast
3:35 PM - - - N/A% - - North - - N/A   Unknown
3:55 PM - - - N/A% - - North - - N/A   Unknown
4:15 PM 55.4 °F - 8.6 °F 15% 30.06 in 10.0 mi ESE 23.0 mph 29.9 mph N/A   Unknown
4:35 PM 53.6 °F - 8.6 °F 16% 30.06 in 10.0 mi ESE 20.7 mph 31.1 mph N/A   Overcast
4:55 PM 53.6 °F - 8.6 °F 16% 30.07 in 10.0 mi ESE 25.3 mph 29.9 mph N/A   Overcast
5:15 PM 53.6 °F - 8.6 °F 16% 30.07 in 10.0 mi ESE 17.3 mph 27.6 mph N/A   Overcast
5:35 PM 53.6 °F - 8.6 °F 16% 30.08 in 10.0 mi ESE 19.6 mph 31.1 mph N/A   Overcast
5:55 PM 51.8 °F - 8.6 °F 18% 30.09 in 10.0 mi ESE 21.9 mph 27.6 mph N/A   Overcast
6:35 PM 51.8 °F - 8.6 °F 18% 30.11 in 10.0 mi East 23.0 mph 28.8 mph N/A   Overcast
6:55 PM 50.0 °F - 8.6 °F 19% 30.12 in 10.0 mi East 19.6 mph 27.6 mph N/A   Overcast
7:15 PM 50.0 °F - 8.6 °F 19% 30.12 in 10.0 mi East 18.4 mph 25.3 mph N/A   Overcast
7:55 PM 50.0 °F - 8.6 °F 19% 30.13 in 10.0 mi ESE 19.6 mph 27.6 mph N/A   Overcast
8:15 PM 50.0 °F - 8.6 °F 19% 30.14 in 10.0 mi East 19.6 mph 25.3 mph N/A   Overcast
8:35 PM 50.0 °F - 8.6 °F 19% 30.14 in 10.0 mi East 18.4 mph 24.2 mph N/A   Mostly Cloudy
8:55 PM 50.0 °F - 8.6 °F 19% 30.15 in 10.0 mi East 23.0 mph 29.9 mph N/A   Scattered Clouds
9:15 PM 50.0 °F - 10.4 °F 20% 30.16 in 10.0 mi East 23.0 mph 36.8 mph N/A   Mostly Cloudy
9:35 PM 50.0 °F - 10.4 °F 20% 30.17 in 10.0 mi East 23.0 mph 34.5 mph N/A   Scattered Clouds
9:55 PM 50.0 °F - 10.4 °F 20% 30.18 in 10.0 mi East 23.0 mph 32.2 mph N/A   Partly Cloudy
10:15 PM 50.0 °F - 10.4 °F 20% 30.18 in 10.0 mi East 18.4 mph 31.1 mph N/A   Clear
10:35 PM - - - N/A% - 10.0 mi North - - N/A   Unknown
10:55 PM - - - N/A% - - North - - N/A   Unknown
11:15 PM 50.0 °F - 12.2 °F 22% 30.20 in 10.0 mi East 19.6 mph 26.5 mph N/A   Unknown
11:35 PM 50.0 °F - 10.4 °F 20% 30.20 in 10.0 mi East 20.7 mph 27.6 mph N/A   Clear
11:55 PM 50.0 °F - 12.2 °F 22% 30.20 in 10.0 mi East 23.0 mph 29.9 mph N/A   Clear